Location: Boiro
(42.6475°N, 8.8834°W)
Time: 18:56:00
(UTC+01:00)

Explorer 7 - Pass Details

Date: 07 December 2021
Orbit: 483 x 674 km, 50.3° (Epoch: 26 January)

Event Time Altitude Azimuth Distance (km) Brightness Sun altitude
Rises 13:06:40 0° 289° (WNW) 2,614 10.1 24.5°
Reaches altitude 10° 13:09:30 10° 268° (W) 1,697 9.4 24.6°
Maximum altitude 13:11:57 16° 228° (SW) 1,326 9.5 24.6°
Drops below altitude 10° 13:14:22 10° 187° (S) 1,660 11.1 24.6°
Sets 13:17:06 0° 166° (SSE) 2,528 11.5 24.6°
